QPF
0.00 0.00 0.01 0.00 0.00 0.00 0.00 0.00 0.00 0.00 0.00 0.00 0.00 0.00 0.00 0.00 0.00 0.00 0.00 0.00 0.00 0.00 0.01 0.01 0.01 0.01 0.01 0.00 0.00 0.00 0.00 0.00 0.00 0.01 0.01 0.02 0.03 0.02 0.01 0.01 0.01 0.01 0.02
0.00 0.00 0.00 0.00 0.00 0.00 0.00 0.00 0.00 0.00 0.00 0.00 0.00 0.00 0.00 0.00 0.00 0.00 0.00 0.00 0.01 0.01 0.01 0.00 0.01 0.01 0.01 0.00 0.00 0.00 0.00 0.00 0.01 0.02 0.02 0.03 0.04 0.02 0.01 0.00 0.00 0.01 0.01
0.00 0.00 0.00 0.00 0.00 0.00 0.00 0.00 0.00 0.00 0.00 0.00 0.00 0.00 0.00 0.00 0.00 0.00 0.00 0.00 0.01 0.01 0.00 0.00 0.00 0.01 0.01 0.01 0.01 0.01 0.01 0.01 0.01 0.02 0.02 0.02 0.04 0.04 0.02 0.00 0.01 0.01 0.01
0.00 0.00 0.00 0.00 0.00 0.00 0.00 0.00 0.00 0.00 0.00 0.00 0.00 0.00 0.00 0.00 0.00 0.00 0.00 0.00 0.01 0.01 0.01 0.01 0.01 0.01 0.01 0.01 0.01 0.01 0.02 0.02 0.03 0.03 0.01 0.01 0.02 0.04 0.02 0.01 0.01 0.01 0.01
0.00 0.00 0.00 0.00 0.00 0.00 0.00 0.00 0.00 0.00 0.00 0.00 0.00 0.00 0.00 0.00 0.00 0.00 0.00 0.01 0.01 0.01 0.01 0.01 0.01 0.01 0.01 0.01 0.02 0.02 0.04 0.07 0.07 0.03 0.01 0.01 0.01 0.03 0.02 0.00 0.00 0.01 0.01
0.01 0.01 0.00 0.00 0.00 0.00 0.00 0.00 0.00 0.00 0.00 0.00 0.00 0.00 0.00 0.00 0.00 0.00 0.00 0.01 0.01 0.01 0.01 0.01 0.01 0.01 0.01 0.01 0.02 0.02 0.05 0.08 0.06 0.02 0.01 0.01 0.01 0.02 0.03 0.01 0.01 0.01 0.01
0.03 0.01 0.01 0.01 0.01 0.00 0.00 0.00 0.00 0.00 0.00 0.00 0.00 0.00 0.00 0.00 0.00 0.00 0.00 0.00 0.01 0.01 0.01 0.01 0.01 0.01 0.02 0.02 0.02 0.03 0.04 0.07 0.04 0.02 0.01 0.02 0.02 0.02 0.03 0.01 0.00 0.00 0.01
0.05 0.03 0.02 0.02 0.01 0.01 0.01 0.01 0.01 0.00 0.00 0.00 0.00 0.00 0.00 0.00 0.00 0.00 0.00 0.00 0.01 0.01 0.01 0.01 0.01 0.01 0.02 0.03 0.03 0.03 0.03 0.04 0.03 0.02 0.01 0.02 0.03 0.03 0.02 0.02 0.00 0.00 0.01
0.12 0.06 0.04 0.03 0.02 0.02 0.02 0.01 0.01 0.01 0.00 0.00 0.00 0.00 0.00 0.00 0.00 0.01 0.01 0.00 0.00 0.00 0.01 0.01 0.01 0.01 0.01 0.02 0.02 0.03 0.03 0.03 0.04 0.04 0.02 0.02 0.05 0.04 0.03 0.02 0.01 0.00 0.01
0.11 0.08 0.07 0.05 0.03 0.02 0.03 0.03 0.02 0.02 0.01 0.01 0.01 0.01 0.01 0.00 0.00 0.00 0.00 0.00 0.00 0.00 0.00 0.01 0.01 0.01 0.01 0.01 0.02 0.02 0.03 0.02 0.03 0.03 0.02 0.03 0.04 0.07 0.05 0.03 0.02 0.01 0.01
0.06 0.06 0.07 0.05 0.04 0.03 0.03 0.03 0.02 0.02 0.02 0.01 0.01 0.01 0.01 0.00 0.00 0.00 0.00 0.00 0.00 0.00 0.00 0.00 0.00 0.01 0.01 0.01 0.02 0.03 0.02 0.01 0.01 0.02 0.02 0.03 0.05 0.07 0.07 0.05 0.04 0.03 0.01
0.09 0.07 0.08 0.10 0.07 0.06 0.05 0.05 0.03 0.02 0.01 0.01 0.01 0.01 0.00 0.00 0.00 0.00 0.01 0.01 0.01 0.01 0.01 0.01 0.01 0.01 0.01 0.00 0.01 0.01 0.01 0.01 0.01 0.01 0.02 0.05 0.07 0.09 0.08 0.06 0.05 0.04 0.03
0.12 0.12 0.11 0.09 0.08 0.08 0.06 0.05 0.03 0.02 0.01 0.01 0.01 0.01 0.00 0.00 0.01 0.01 0.01 0.02 0.01 0.01 0.01 0.01 0.01 0.01 0.00 0.00 0.00 0.01 0.01 0.01 0.01 0.01 0.03 0.06 0.09 0.08 0.08 0.07 0.06 0.05 0.05
0.17 0.17 0.15 0.13 0.11 0.08 0.06 0.05 0.04 0.02 0.01 0.01 0.01 0.01 0.01 0.01 0.01 0.01 0.02 0.02 0.01 0.02 0.02 0.02 0.02 0.01 0.01 0.00 0.00 0.01 0.02 0.01 0.01 0.01 0.02 0.05 0.07 0.08 0.09 0.09 0.08 0.08 0.06
0.17 0.18 0.17 0.14 0.13 0.11 0.09 0.07 0.05 0.04 0.02 0.01 0.01 0.01 0.01 0.00 0.01 0.01 0.02 0.02 0.03 0.05 0.04 0.04 0.03 0.02 0.01 0.01 0.01 0.02 0.02 0.02 0.02 0.04 0.03 0.04 0.06 0.08 0.11 0.12 0.12 0.10 0.08
0.15 0.16 0.13 0.10 0.10 0.11 0.11 0.09 0.07 0.06 0.05 0.03 0.03 0.02 0.02 0.01 0.01 0.02 0.04 0.04 0.04 0.06 0.07 0.07 0.06 0.05 0.04 0.03 0.03 0.04 0.03 0.03 0.03 0.05 0.04 0.04 0.06 0.09 0.12 0.13 0.11 0.10 0.09
0.08 0.09 0.09 0.06 0.07 0.07 0.09 0.10 0.10 0.08 0.05 0.05 0.05 0.04 0.03 0.03 0.03 0.03 0.07 0.08 0.08 0.10 0.11 0.11 0.10 0.10 0.07 0.06 0.06 0.06 0.07 0.06 0.06 0.05 0.04 0.04 0.05 0.09 0.12 0.13 0.12 0.11 0.09
0.08 0.07 0.08 0.08 0.10 0.09 0.10 0.10 0.10 0.08 0.07 0.07 0.07 0.06 0.06 0.05 0.03 0.04 0.06 0.07 0.08 0.10 0.11 0.14 0.15 0.14 0.13 0.12 0.11 0.11 0.11 0.10 0.09 0.08 0.06 0.07 0.09 0.08 0.09 0.11 0.13 0.12 0.10
0.08 0.07 0.09 0.12 0.12 0.10 0.10 0.11 0.10 0.12 0.14 0.13 0.13 0.09 0.08 0.07 0.05 0.05 0.06 0.09 0.11 0.11 0.11 0.14 0.15 0.15 0.14 0.14 0.15 0.15 0.12 0.10 0.09 0.09 0.09 0.10 0.11 0.10 0.10 0.11 0.13 0.14 0.13
0.06 0.06 0.07 0.15 0.18 0.12 0.12 0.14 0.17 0.23 0.24 0.23 0.18 0.14 0.11 0.09 0.07 0.07 0.06 0.08 0.12 0.13 0.12 0.13 0.12 0.12 0.13 0.14 0.16 0.16 0.11 0.09 0.08 0.08 0.08 0.07 0.09 0.11 0.11 0.10 0.10 0.11 0.12
0.05 0.07 0.06 0.09 0.14 0.14 0.16 0.18 0.21 0.28 0.28 0.20 0.15 0.13 0.11 0.09 0.07 0.06 0.07 0.07 0.09 0.11 0.12 0.11 0.10 0.11 0.11 0.12 0.13 0.11 0.09 0.08 0.07 0.07 0.10 0.11 0.10 0.11 0.11 0.10 0.08 0.08 0.09
0.03 0.10 0.11 0.10 0.11 0.14 0.16 0.19 0.23 0.27 0.26 0.20 0.14 0.09 0.08 0.07 0.06 0.05 0.06 0.07 0.07 0.08 0.07 0.07 0.08 0.09 0.09 0.12 0.11 0.10 0.06 0.05 0.03 0.03 0.07 0.12 0.11 0.10 0.11 0.10 0.09 0.08 0.08
0.03 0.05 0.06 0.06 0.07 0.09 0.14 0.17 0.15 0.14 0.17 0.16 0.10 0.07 0.06 0.05 0.05 0.06 0.06 0.08 0.08 0.06 0.06 0.06 0.07 0.08 0.09 0.09 0.09 0.09 0.07 0.04 0.03 0.03 0.03 0.07 0.11 0.11 0.11 0.11 0.11 0.09 0.08
0.04 0.04 0.04 0.04 0.05 0.05 0.07 0.09 0.09 0.10 0.11 0.08 0.08 0.08 0.07 0.05 0.05 0.06 0.06 0.08 0.08 0.06 0.06 0.07 0.07 0.07 0.07 0.07 0.08 0.08 0.07 0.05 0.05 0.05 0.04 0.04 0.06 0.09 0.12 0.13 0.12 0.10 0.10
0.04 0.03 0.03 0.03 0.03 0.04 0.05 0.05 0.06 0.06 0.07 0.08 0.07 0.06 0.05 0.04 0.05 0.05 0.06 0.07 0.07 0.07 0.08 0.08 0.07 0.06 0.06 0.07 0.07 0.08 0.07 0.06 0.05 0.06 0.05 0.07 0.09 0.10 0.12 0.14 0.14 0.13 0.11
0.02 0.01 0.01 0.02 0.02 0.02 0.03 0.03 0.04 0.05 0.06 0.06 0.05 0.05 0.04 0.03 0.03 0.03 0.04 0.06 0.06 0.07 0.08 0.07 0.06 0.05 0.06 0.06 0.06 0.07 0.07 0.06 0.06 0.07 0.07 0.08 0.11 0.13 0.14 0.14 0.13 0.12 0.12
MSLP
1012.16 1011.94 1011.89 1012.02 1012.28 1012.60 1012.90 1013.14 1013.29 1013.37 1013.44 1013.57 1013.81 1014.19 1014.70 1015.30 1015.91 1016.45 1016.88 1017.16 1017.30 1017.35 1017.35 1017.36 1017.42 1017.54 1017.72 1017.92 1018.12 1018.29 1018.41 1018.49 1018.52 1018.54 1018.56 1018.60 1018.67 1018.76 1018.86 1018.97 1019.08 1019.19 1019.31
1011.94 1011.87 1011.96 1012.21 1012.57 1012.97 1013.32 1013.57 1013.72 1013.80 1013.86 1013.98 1014.21 1014.58 1015.09 1015.67 1016.26 1016.79 1017.19 1017.45 1017.59 1017.63 1017.63 1017.65 1017.71 1017.83 1018.00 1018.18 1018.36 1018.50 1018.60 1018.67 1018.70 1018.74 1018.78 1018.84 1018.92 1019.01 1019.10 1019.20 1019.30 1019.40 1019.51
1011.77 1011.84 1012.07 1012.44 1012.91 1013.39 1013.81 1014.11 1014.29 1014.38 1014.44 1014.55 1014.76 1015.10 1015.55 1016.07 1016.60 1017.06 1017.41 1017.64 1017.76 1017.81 1017.83 1017.86 1017.94 1018.07 1018.22 1018.39 1018.54 1018.66 1018.75 1018.82 1018.88 1018.94 1019.02 1019.12 1019.22 1019.31 1019.40 1019.48 1019.55 1019.63 1019.72
1011.73 1011.91 1012.24 1012.73 1013.29 1013.85 1014.34 1014.70 1014.93 1015.05 1015.13 1015.23 1015.41 1015.69 1016.06 1016.49 1016.91 1017.29 1017.57 1017.76 1017.86 1017.92 1017.97 1018.03 1018.14 1018.27 1018.43 1018.58 1018.70 1018.81 1018.89 1018.97 1019.05 1019.16 1019.29 1019.43 1019.56 1019.67 1019.75 1019.80 1019.84 1019.89 1019.96
1011.86 1012.09 1012.50 1013.05 1013.68 1014.30 1014.86 1015.28 1015.56 1015.72 1015.82 1015.92 1016.07 1016.28 1016.57 1016.89 1017.21 1017.49 1017.69 1017.84 1017.93 1018.01 1018.10 1018.21 1018.34 1018.49 1018.64 1018.76 1018.86 1018.95 1019.03 1019.12 1019.25 1019.41 1019.59 1019.77 1019.93 1020.05 1020.12 1020.14 1020.14 1020.15 1020.19
1012.13 1012.37 1012.79 1013.35 1014.01 1014.67 1015.27 1015.74 1016.07 1016.28 1016.41 1016.53 1016.66 1016.83 1017.04 1017.27 1017.49 1017.68 1017.83 1017.94 1018.04 1018.14 1018.26 1018.41 1018.57 1018.73 1018.87 1018.97 1019.05 1019.11 1019.18 1019.29 1019.45 1019.66 1019.89 1020.12 1020.31 1020.43 1020.48 1020.46 1020.42 1020.39 1020.39
1012.49 1012.68 1013.05 1013.59 1014.23 1014.89 1015.49 1016.00 1016.37 1016.63 1016.82 1016.96 1017.11 1017.27 1017.44 1017.61 1017.77 1017.90 1018.00 1018.09 1018.20 1018.32 1018.48 1018.66 1018.85 1019.01 1019.13 1019.21 1019.25 1019.29 1019.35 1019.46 1019.65 1019.90 1020.17 1020.43 1020.64 1020.76 1020.79 1020.74 1020.65 1020.58 1020.55
1012.82 1012.93 1013.23 1013.70 1014.29 1014.91 1015.50 1016.01 1016.41 1016.73 1016.98 1017.18 1017.38 1017.57 1017.74 1017.90 1018.03 1018.13 1018.21 1018.30 1018.41 1018.56 1018.74 1018.94 1019.14 1019.30 1019.40 1019.45 1019.46 1019.47 1019.52 1019.64 1019.84 1020.11 1020.41 1020.69 1020.90 1021.01 1021.02 1020.94 1020.82 1020.71 1020.66
1013.06 1013.08 1013.29 1013.68 1014.18 1014.74 1015.29 1015.78 1016.21 1016.57 1016.89 1017.18 1017.46 1017.71 1017.94 1018.12 1018.26 1018.36 1018.44 1018.53 1018.64 1018.80 1019.00 1019.21 1019.41 1019.57 1019.66 1019.68 1019.67 1019.66 1019.70 1019.81 1020.01 1020.29 1020.59 1020.88 1021.09 1021.19 1021.18 1021.08 1020.94 1020.81 1020.74
1013.17 1013.11 1013.25 1013.55 1013.97 1014.45 1014.93 1015.40 1015.83 1016.23 1016.62 1017.00 1017.37 1017.72 1018.02 1018.26 1018.44 1018.56 1018.65 1018.73 1018.85 1019.01 1019.21 1019.43 1019.63 1019.78 1019.87 1019.89 1019.87 1019.85 1019.87 1019.97 1020.17 1020.43 1020.73 1021.01 1021.21 1021.30 1021.28 1021.18 1021.03 1020.89 1020.81
1013.17 1013.08 1013.17 1013.40 1013.74 1014.14 1014.55 1014.97 1015.38 1015.80 1016.25 1016.71 1017.18 1017.62 1018.01 1018.33 1018.55 1018.70 1018.80 1018.89 1019.00 1019.16 1019.35 1019.57 1019.77 1019.93 1020.03 1020.06 1020.05 1020.03 1020.06 1020.15 1020.33 1020.57 1020.85 1021.10 1021.29 1021.38 1021.37 1021.27 1021.14 1021.01 1020.94
1013.15 1013.06 1013.13 1013.33 1013.61 1013.92 1014.25 1014.60 1014.97 1015.39 1015.86 1016.39 1016.93 1017.46 1017.94 1018.32 1018.60 1018.78 1018.89 1018.98 1019.08 1019.22 1019.41 1019.63 1019.85 1020.03 1020.15 1020.22 1020.23 1020.24 1020.26 1020.35 1020.50 1020.72 1020.97 1021.20 1021.37 1021.46 1021.46 1021.40 1021.29 1021.20 1021.16
1013.18 1013.14 1013.24 1013.42 1013.64 1013.88 1014.12 1014.39 1014.70 1015.08 1015.55 1016.10 1016.70 1017.29 1017.83 1018.27 1018.58 1018.79 1018.91 1019.00 1019.09 1019.23 1019.41 1019.64 1019.87 1020.09 1020.26 1020.37 1020.43 1020.46 1020.50 1020.58 1020.72 1020.90 1021.11 1021.31 1021.47 1021.57 1021.60 1021.58 1021.53 1021.48 1021.47
1013.34 1013.38 1013.52 1013.70 1013.88 1014.04 1014.20 1014.37 1014.60 1014.93 1015.37 1015.91 1016.52 1017.14 1017.71 1018.18 1018.53 1018.75 1018.88 1018.96 1019.05 1019.18 1019.37 1019.61 1019.88 1020.13 1020.36 1020.52 1020.63 1020.71 1020.77 1020.85 1020.96 1021.11 1021.28 1021.45 1021.61 1021.72 1021.78 1021.81 1021.82 1021.83 1021.86
1013.65 1013.78 1013.96 1014.15 1014.29 1014.38 1014.45 1014.53 1014.67 1014.93 1015.31 1015.82 1016.41 1017.02 1017.60 1018.08 1018.43 1018.67 1018.80 1018.89 1018.98 1019.11 1019.31 1019.57 1019.87 1020.17 1020.45 1020.67 1020.84 1020.95 1021.04 1021.12 1021.21 1021.33 1021.46 1021.61 1021.76 1021.88 1021.99 1022.08 1022.15 1022.22 1022.31
1014.10 1014.30 1014.51 1014.69 1014.79 1014.82 1014.81 1014.80 1014.86 1015.04 1015.36 1015.81 1016.35 1016.94 1017.49 1017.96 1018.31 1018.55 1018.69 1018.78 1018.88 1019.02 1019.23 1019.51 1019.84 1020.18 1020.51 1020.78 1021.00 1021.16 1021.26 1021.35 1021.43 1021.52 1021.64 1021.76 1021.90 1022.05 1022.19 1022.33 1022.47 1022.61 1022.73
1014.61 1014.83 1015.05 1015.20 1015.26 1015.23 1015.16 1015.09 1015.08 1015.19 1015.45 1015.84 1016.33 1016.86 1017.37 1017.81 1018.15 1018.38 1018.53 1018.63 1018.74 1018.89 1019.12 1019.41 1019.76 1020.14 1020.50 1020.82 1021.08 1021.27 1021.41 1021.51 1021.59 1021.67 1021.77 1021.89 1022.02 1022.18 1022.36 1022.54 1022.73 1022.92 1023.10
1015.07 1015.28 1015.47 1015.58 1015.59 1015.52 1015.40 1015.29 1015.25 1015.32 1015.53 1015.87 1016.30 1016.77 1017.23 1017.63 1017.94 1018.16 1018.30 1018.41 1018.53 1018.70 1018.94 1019.25 1019.62 1020.01 1020.40 1020.76 1021.05 1021.28 1021.45 1021.57 1021.67 1021.75 1021.85 1021.96 1022.11 1022.28 1022.47 1022.69 1022.92 1023.15 1023.37
1015.41 1015.58 1015.70 1015.75 1015.72 1015.61 1015.48 1015.37 1015.32 1015.38 1015.57 1015.87 1016.25 1016.66 1017.06 1017.41 1017.68 1017.87 1018.01 1018.13 1018.26 1018.44 1018.69 1019.00 1019.37 1019.78 1020.19 1020.57 1020.90 1021.17 1021.38 1021.54 1021.66 1021.77 1021.88 1022.00 1022.15 1022.33 1022.54 1022.78 1023.03 1023.29 1023.53
1015.59 1015.69 1015.73 1015.72 1015.64 1015.52 1015.39 1015.30 1015.29 1015.37 1015.56 1015.84 1016.17 1016.53 1016.86 1017.15 1017.38 1017.54 1017.67 1017.78 1017.92 1018.11 1018.36 1018.68 1019.05 1019.46 1019.88 1020.27 1020.64 1020.95 1021.21 1021.42 1021.59 1021.74 1021.88 1022.02 1022.18 1022.37 1022.59 1022.83 1023.10 1023.37 1023.63
1015.64 1015.65 1015.61 1015.53 1015.41 1015.29 1015.19 1015.15 1015.18 1015.31 1015.52 1015.79 1016.10 1016.40 1016.67 1016.90 1017.08 1017.21 1017.31 1017.42 1017.56 1017.75 1018.00 1018.31 1018.68 1019.08 1019.50 1019.92 1020.31 1020.66 1020.97 1021.24 1021.47 1021.67 1021.85 1022.03 1022.21 1022.41 1022.63 1022.88 1023.15 1023.43 1023.70
1015.61 1015.54 1015.43 1015.29 1015.14 1015.02 1014.96 1014.98 1015.08 1015.27 1015.51 1015.79 1016.07 1016.33 1016.54 1016.71 1016.83 1016.92 1017.00 1017.10 1017.24 1017.42 1017.66 1017.97 1018.32 1018.71 1019.12 1019.54 1019.95 1020.34 1020.70 1021.02 1021.32 1021.58 1021.81 1022.03 1022.24 1022.45 1022.69 1022.94 1023.21 1023.50 1023.79
1015.60 1015.48 1015.31 1015.12 1014.95 1014.84 1014.82 1014.89 1015.06 1015.30 1015.58 1015.87 1016.13 1016.35 1016.51 1016.63 1016.70 1016.75 1016.81 1016.89 1017.01 1017.19 1017.41 1017.69 1018.02 1018.38 1018.77 1019.17 1019.58 1019.99 1020.39 1020.76 1021.11 1021.43 1021.72 1021.98 1022.24 1022.49 1022.75 1023.02 1023.31 1023.62 1023.93
1015.71 1015.56 1015.35 1015.12 1014.93 1014.83 1014.84 1014.96 1015.17 1015.46 1015.77 1016.07 1016.32 1016.51 1016.63 1016.70 1016.73 1016.75 1016.78 1016.85 1016.95 1017.10 1017.30 1017.53 1017.81 1018.12 1018.46 1018.82 1019.21 1019.61 1020.01 1020.42 1020.81 1021.18 1021.53 1021.85 1022.17 1022.47 1022.78 1023.10 1023.43 1023.77 1024.11
1015.98 1015.83 1015.60 1015.34 1015.14 1015.03 1015.05 1015.20 1015.45 1015.77 1016.10 1016.41 1016.65 1016.82 1016.91 1016.94 1016.94 1016.93 1016.94 1016.98 1017.05 1017.16 1017.31 1017.49 1017.69 1017.92 1018.18 1018.48 1018.80 1019.16 1019.54 1019.95 1020.36 1020.77 1021.18 1021.57 1021.97 1022.35 1022.74 1023.14 1023.54 1023.94 1024.33
1016.42 1016.29 1016.04 1015.77 1015.55 1015.43 1015.45 1015.60 1015.87 1016.20 1016.54 1016.85 1017.08 1017.24 1017.31 1017.32 1017.30 1017.27 1017.25 1017.25 1017.29 1017.35 1017.43 1017.52 1017.63 1017.75 1017.90 1018.09 1018.32 1018.60 1018.93 1019.31 1019.73 1020.17 1020.63 1021.11 1021.60 1022.09 1022.59 1023.09 1023.59 1024.07 1024.53
Thickness
5788 5789 5786 5783 5781 5781 5781 5781 5780 5779 5777 5775 5773 5771 5768 5766 5764 5761 5759 5757 5756 5755 5754 5753 5751 5750 5749 5747 5745 5744 5742 5740 5739 5737 5736 5734 5733 5732 5731 5730 5729 5728 5726
5793 5788 5784 5781 5779 5778 5778 5777 5776 5775 5774 5773 5770 5768 5765 5763 5761 5759 5758 5756 5755 5753 5752 5750 5749 5748 5746 5745 5743 5742 5740 5738 5737 5736 5735 5733 5732 5730 5730 5729 5727 5726 5725
5791 5786 5782 5779 5777 5776 5774 5773 5772 5771 5770 5769 5767 5765 5763 5761 5759 5757 5756 5754 5753 5752 5750 5749 5747 5745 5744 5743 5741 5740 5738 5737 5736 5734 5733 5732 5730 5729 5728 5727 5726 5724 5723
5788 5783 5779 5777 5775 5773 5771 5769 5768 5767 5766 5765 5764 5762 5760 5758 5756 5754 5753 5752 5751 5749 5748 5747 5745 5743 5742 5741 5739 5738 5737 5735 5734 5733 5731 5730 5729 5728 5727 5725 5724 5723 5721
5783 5779 5775 5773 5771 5770 5768 5766 5764 5763 5762 5760 5759 5758 5757 5755 5754 5752 5750 5749 5748 5747 5746 5745 5743 5741 5740 5738 5737 5736 5735 5734 5732 5731 5730 5729 5728 5726 5725 5724 5722 5721 5720
5776 5773 5771 5769 5767 5765 5764 5762 5761 5759 5758 5756 5755 5754 5753 5752 5751 5749 5748 5747 5746 5745 5743 5742 5741 5739 5738 5737 5736 5735 5734 5733 5731 5729 5728 5727 5726 5724 5723 5722 5721 5720 5718
5771 5769 5766 5764 5763 5761 5759 5758 5756 5755 5754 5752 5751 5750 5749 5748 5747 5747 5746 5744 5743 5742 5741 5740 5739 5737 5736 5735 5734 5733 5732 5731 5730 5728 5726 5725 5724 5723 5721 5720 5719 5718 5717
5768 5766 5762 5760 5758 5757 5755 5754 5753 5751 5750 5749 5748 5746 5746 5745 5744 5743 5743 5742 5741 5740 5738 5737 5736 5735 5734 5733 5732 5732 5731 5730 5728 5727 5725 5723 5722 5721 5720 5718 5717 5717 5716
5763 5761 5758 5755 5753 5752 5751 5750 5749 5748 5747 5746 5744 5743 5742 5741 5741 5740 5740 5739 5738 5737 5736 5734 5733 5732 5732 5731 5730 5730 5729 5728 5727 5725 5724 5722 5720 5719 5718 5717 5716 5715 5714
5756 5754 5752 5750 5748 5747 5746 5745 5744 5743 5743 5742 5741 5740 5739 5738 5738 5737 5737 5736 5735 5734 5733 5731 5730 5729 5729 5728 5728 5727 5727 5726 5725 5723 5722 5721 5719 5718 5717 5716 5715 5714 5713
5748 5747 5746 5744 5744 5744 5742 5740 5739 5739 5739 5738 5737 5737 5736 5735 5734 5734 5733 5733 5732 5731 5730 5729 5728 5726 5726 5725 5725 5724 5724 5723 5722 5721 5720 5719 5718 5717 5716 5715 5713 5712 5712
5739 5739 5740 5739 5739 5738 5738 5736 5735 5735 5734 5734 5734 5734 5733 5732 5731 5731 5730 5729 5729 5728 5727 5726 5725 5724 5723 5722 5721 5721 5720 5720 5719 5718 5718 5718 5717 5716 5714 5713 5712 5711 5710
5736 5735 5734 5734 5735 5734 5732 5731 5731 5730 5729 5730 5730 5731 5730 5729 5727 5727 5726 5726 5725 5724 5723 5723 5722 5721 5720 5719 5718 5717 5717 5717 5716 5716 5716 5716 5715 5714 5713 5712 5711 5709 5709
5731 5730 5729 5730 5729 5728 5728 5728 5727 5726 5725 5725 5725 5725 5724 5724 5723 5722 5722 5721 5721 5720 5719 5718 5718 5717 5716 5716 5715 5714 5713 5713 5714 5714 5714 5714 5713 5712 5712 5711 5709 5708 5707
5727 5726 5726 5726 5725 5724 5723 5723 5723 5722 5721 5721 5720 5720 5720 5719 5718 5718 5718 5717 5716 5716 5715 5714 5713 5713 5712 5712 5712 5711 5710 5710 5710 5711 5711 5711 5711 5710 5709 5709 5707 5706 5705
5721 5720 5720 5720 5721 5720 5719 5717 5717 5717 5716 5716 5715 5714 5715 5714 5714 5714 5714 5713 5712 5712 5712 5711 5710 5709 5708 5707 5707 5707 5707 5706 5707 5707 5707 5707 5708 5708 5707 5706 5705 5704 5703
5714 5713 5715 5714 5715 5714 5712 5711 5710 5710 5710 5710 5710 5710 5710 5710 5710 5710 5709 5709 5708 5708 5707 5707 5706 5704 5703 5702 5702 5702 5703 5703 5703 5703 5704 5704 5704 5704 5704 5703 5702 5701 5700
5709 5707 5707 5709 5707 5707 5706 5705 5704 5705 5705 5704 5705 5705 5705 5705 5706 5706 5706 5705 5704 5703 5703 5702 5701 5699 5698 5697 5697 5697 5697 5698 5698 5699 5699 5700 5700 5700 5700 5699 5699 5698 5697
5703 5702 5701 5702 5701 5700 5700 5700 5700 5700 5699 5700 5700 5700 5700 5701 5701 5701 5701 5701 5700 5699 5699 5698 5697 5695 5693 5692 5693 5692 5692 5692 5693 5694 5695 5695 5695 5695 5695 5695 5695 5694 5693
5697 5696 5695 5695 5694 5695 5694 5695 5695 5694 5694 5695 5695 5695 5696 5696 5697 5697 5696 5695 5695 5694 5693 5693 5692 5691 5690 5689 5688 5687 5686 5687 5688 5689 5690 5690 5690 5691 5691 5691 5690 5689 5689
5690 5689 5689 5688 5689 5690 5688 5688 5688 5687 5687 5689 5689 5690 5691 5691 5691 5691 5690 5690 5689 5689 5689 5688 5687 5686 5684 5683 5681 5679 5680 5681 5682 5684 5685 5685 5685 5685 5685 5686 5685 5684 5684
5684 5683 5682 5681 5682 5682 5682 5683 5683 5683 5682 5682 5683 5685 5685 5685 5685 5684 5685 5685 5684 5684 5684 5684 5682 5680 5679 5678 5676 5672 5672 5673 5676 5678 5678 5679 5678 5679 5679 5679 5679 5678 5678
5677 5676 5676 5675 5675 5676 5677 5678 5678 5677 5677 5676 5676 5677 5678 5678 5679 5679 5679 5679 5678 5678 5678 5678 5677 5676 5673 5672 5672 5670 5667 5667 5668 5669 5671 5672 5672 5672 5671 5671 5672 5672 5672
5670 5669 5669 5669 5669 5670 5671 5672 5670 5668 5667 5667 5667 5669 5670 5671 5671 5672 5673 5672 5672 5672 5672 5672 5672 5671 5670 5668 5666 5666 5666 5666 5663 5662 5662 5663 5664 5664 5664 5664 5664 5665 5664
5663 5662 5662 5662 5662 5663 5663 5663 5662 5661 5660 5660 5661 5661 5662 5663 5664 5664 5665 5665 5665 5665 5665 5665 5665 5665 5665 5664 5663 5661 5660 5659 5659 5657 5655 5655 5655 5655 5655 5656 5656 5656 5656
5655 5654 5654 5653 5653 5653 5654 5654 5654 5653 5652 5652 5652 5652 5653 5654 5655 5655 5656 5656 5657 5657 5658 5658 5658 5658 5658 5659 5658 5657 5656 5655 5655 5653 5651 5648 5647 5645 5646 5647 5647 5647 5647